sat.trackr.live / text

‹ back to catalog

STARLINK-30353

NORAD 58113 · 2023-161S

PAYLOAD ACTIVE UNKNOWN

§ Identity

Operator
Country
US
Launch date
2023-10-21
Launch site
AFWTR
Launch vehicle
Mass (kg)
RCS (m²)

Purposes: comms

External: N2YO · Heavens-Above · Gunter

§ Orbital elements

Epoch: 2026-09-20T10:37:52.869792Z

Period
93.85 min
Inclination
53.1622°
Eccentricity
0.0001060
Mean motion
15.34380127 rev/d
Perigee alt
462.0 km
Apogee alt
463.5 km
Semi-major
6,840.9 km
B*
-2.0773e-5
RAAN
339.9079°
Arg perigee
79.2590°
Mean anomaly
280.8532°
Rev number
16,425

§ Raw data

STARLINK-303531 58113U 23161S   26263.44297303 -.00001077  00000+0 -20773-4 0  99912 58113  53.1622 339.9079 0001060  79.2590 280.8532 15.34380127164258

JSON: /api/v1/satellites/58113 · /tle

For live sub-satellite position, see the globe view (requires WebGL).

§ Visibility from observer

Set your observer location to see the next 7 days of passes ≥ 10°. The values pass through the URL so the page stays shareable.

No JS? Fill the form by hand. The geolocation button needs JavaScript.